TimeEDT,TemperatureF,Dew PointF,Humidity,Sea Level PressureIn,VisibilityMPH,Wind Direction,Wind SpeedMPH,Gust SpeedMPH,PrecipitationIn,Events,Conditions,WindDirDegrees,DateUTC
12:53 AM,60.1,55.0,83,30.10,10.0,NNE,5.8,-,N/A,,Clear,30,2013-07-26 04:53:00
1:53 AM,60.1,55.0,83,30.09,10.0,Calm,Calm,-,N/A,,Clear,0,2013-07-26 05:53:00
2:53 AM,57.9,54.0,87,30.09,10.0,Calm,Calm,-,N/A,,Clear,0,2013-07-26 06:53:00
3:53 AM,57.9,55.0,90,30.07,10.0,Calm,Calm,-,N/A,,Clear,0,2013-07-26 07:53:00
4:53 AM,55.9,54.0,93,30.07,10.0,Calm,Calm,-,N/A,,Clear,0,2013-07-26 08:53:00
5:53 AM,55.9,54.0,93,30.09,10.0,Calm,Calm,-,N/A,,Clear,0,2013-07-26 09:53:00
6:53 AM,55.0,54.0,96,30.08,10.0,Calm,Calm,-,N/A,,Clear,0,2013-07-26 10:53:00
7:53 AM,61.0,57.0,87,30.09,10.0,Calm,Calm,-,N/A,,Clear,0,2013-07-26 11:53:00
8:53 AM,66.0,55.9,70,30.09,10.0,Calm,Calm,-,N/A,,Clear,0,2013-07-26 12:53:00
9:53 AM,70.0,57.0,63,30.10,10.0,SSE,4.6,-,N/A,,Clear,160,2013-07-26 13:53:00
10:53 AM,73.0,55.9,55,30.09,10.0,South,6.9,-,N/A,,Clear,170,2013-07-26 14:53:00
11:53 AM,75.0,54.0,48,30.09,10.0,South,6.9,-,N/A,,Partly Cloudy,190,2013-07-26 15:53:00
12:53 PM,75.9,55.0,48,30.07,10.0,South,5.8,-,N/A,,Partly Cloudy,180,2013-07-26 16:53:00
1:53 PM,77.0,55.0,47,30.06,10.0,ESE,5.8,-,N/A,,Partly Cloudy,120,2013-07-26 17:53:00
2:53 PM,78.1,55.0,45,30.04,10.0,South,8.1,-,N/A,,Partly Cloudy,190,2013-07-26 18:53:00
3:53 PM,80.1,55.9,43,30.02,10.0,SSW,9.2,-,N/A,,Partly Cloudy,200,2013-07-26 19:53:00
4:53 PM,79.0,57.0,47,30.00,10.0,Variable,4.6,16.1,N/A,,Clear,0,2013-07-26 20:53:00
5:53 PM,79.0,57.0,47,30.00,10.0,South,9.2,-,N/A,,Partly Cloudy,170,2013-07-26 21:53:00
6:53 PM,77.0,59.0,54,29.99,10.0,SW,5.8,-,N/A,,Partly Cloudy,220,2013-07-26 22:53:00
7:53 PM,75.0,57.9,55,29.99,10.0,SSW,5.8,-,N/A,,Clear,210,2013-07-26 23:53:00
8:53 PM,73.0,57.9,59,29.99,10.0,Calm,Calm,-,N/A,,Clear,0,2013-07-27 00:53:00
9:53 PM,73.0,59.0,61,29.99,10.0,Calm,Calm,-,N/A,,Clear,0,2013-07-27 01:53:00
10:53 PM,72.0,60.1,66,29.98,10.0,SSW,4.6,-,N/A,,Mostly Cloudy,210,2013-07-27 02:53:00
11:53 PM,70.0,61.0,73,29.97,10.0,SSW,4.6,-,N/A,,Clear,210,2013-07-27 03:53:00